�N����,����,�~����,�C��,���x,�C��,����,���ϕ���,�ő�u�ԕ���,�ő厞����,���˗�,�I�_���x,�n�����x,�ő啗���N��,DTYPE
"22/08/07","00:10",0.0,26.3,87.7,1004.1,341.7,0.5,1.1,316.4,0.00,24.1,26.3,"00:02:08",1
"22/08/07","00:20",0.0,26.4,87.6,1003.8,308.0,0.5,1.2,356.3,0.00,24.2,26.5,"00:14:48",1
"22/08/07","00:30",0.0,26.4,87.5,1004.1,304.3,0.6,1.3,333.9,0.00,24.2,26.3,"00:28:24",1
"22/08/07","00:40",0.0,26.5,87.2,1003.8,355.8,0.6,1.4,338.3,0.00,24.2,26.5,"00:38:32",1
"22/08/07","00:50",0.0,26.6,86.8,1003.8,336.2,0.8,1.7,325.0,0.00,24.3,26.6,"00:46:32",1
"22/08/07","01:00",0.0,26.6,86.5,1003.6,282.0,0.6,1.0,332.8,0.00,24.2,26.4,"00:50:08",1
"22/08/07","01:10",0.0,26.5,86.4,1003.6,297.9,0.7,1.2,295.8,0.00,24.1,26.3,"01:04:16",1
"22/08/07","01:20",0.0,26.3,86.4,1003.6,302.0,0.7,1.1,330.6,0.00,23.9,26.4,"01:10:24",1
"22/08/07","01:30",0.0,26.1,86.6,1003.4,308.7,0.8,1.3,307.4,0.00,23.7,26.2,"01:22:08",1
"22/08/07","01:40",0.0,26.0,87.0,1003.6,309.0,1.0,1.3,342.1,0.00,23.7,26.5,"01:30:40",1
"22/08/07","01:50",0.0,25.9,87.4,1003.6,318.9,1.1,1.7,314.8,0.00,23.7,26.3,"01:41:28",1
"22/08/07","02:00",0.0,25.6,87.8,1003.6,271.9,0.6,0.9,314.2,0.00,23.5,26.2,"01:50:08",1
"22/08/07","02:10",0.0,25.6,88.2,1003.6,323.9,0.8,1.2,2.9,0.00,23.5,26.5,"02:05:28",1
"22/08/07","02:20",0.0,25.5,88.6,1003.6,305.4,1.0,1.4,312.1,0.00,23.5,26.2,"02:19:12",1
"22/08/07","02:30",0.0,25.4,89.0,1003.4,301.5,1.1,1.7,298.7,0.00,23.5,26.2,"02:22:56",1
"22/08/07","02:40",0.0,25.3,89.3,1003.1,306.4,1.0,1.3,339.5,0.00,23.5,26.3,"02:38:48",1
"22/08/07","02:50",0.0,25.3,89.6,1003.6,285.3,0.8,1.2,313.4,0.00,23.5,26.2,"02:41:04",1
"22/08/07","03:00",0.0,25.0,89.8,1003.6,309.6,0.6,1.0,318.5,0.00,23.2,26.2,"02:56:56",1
"22/08/07","03:10",0.0,25.0,90.0,1003.6,292.0,0.7,1.0,264.2,0.00,23.3,26.3,"03:06:24",1
"22/08/07","03:20",0.0,25.1,90.4,1003.8,339.8,1.0,1.8,341.8,0.00,23.5,26.2,"03:13:28",1
"22/08/07","03:30",0.0,25.1,90.5,1003.6,299.2,0.5,1.1,348.3,0.00,23.5,26.4,"03:20:32",1
"22/08/07","03:40",0.0,25.1,90.7,1004.1,299.4,0.8,1.3,322.8,0.00,23.5,26.0,"03:38:24",1
"22/08/07","03:50",0.0,25.1,90.9,1004.1,305.3,0.6,1.0,261.6,0.00,23.5,26.2,"03:43:20",1
"22/08/07","04:00",0.0,25.2,91.0,1003.6,325.9,0.8,1.2,322.2,0.00,23.7,26.0,"03:52:00",1
"22/08/07","04:10",0.0,25.3,91.1,1003.6,333.2,0.8,1.3,346.6,0.00,23.8,26.2,"04:01:20",1
"22/08/07","04:20",0.0,25.2,91.2,1004.1,318.1,0.8,1.1,315.0,0.00,23.7,26.2,"04:15:12",1
"22/08/07","04:30",0.0,25.1,91.4,1004.3,333.1,0.7,1.3,346.6,0.00,23.6,26.0,"04:29:52",1
"22/08/07","04:40",0.0,25.0,91.5,1004.1,322.6,0.7,1.3,349.2,0.00,23.6,26.2,"04:30:40",1
"22/08/07","04:50",0.0,24.9,91.6,1004.1,325.6,0.8,1.3,356.2,0.00,23.5,26.1,"04:44:32",1
"22/08/07","05:00",0.0,24.7,91.7,1004.3,331.7,0.1,0.6,312.5,0.00,23.3,25.9,"04:50:16",1
"22/08/07","05:10",0.0,24.6,92.0,1004.3,320.4,1.0,1.1,327.4,0.00,23.3,26.0,"05:02:32",1
"22/08/07","05:20",0.0,24.7,92.1,1004.3,328.0,1.0,1.4,334.7,0.00,23.4,25.9,"05:14:48",1
"22/08/07","05:30",0.0,24.7,92.1,1004.3,322.8,0.3,1.0,331.5,0.00,23.4,26.1,"05:20:24",1
"22/08/07","05:40",0.0,24.7,92.3,1004.8,315.5,0.6,1.2,333.6,0.00,23.4,25.9,"05:39:44",1
"22/08/07","05:50",0.0,24.8,92.3,1004.8,318.2,0.8,1.3,330.7,0.00,23.5,25.9,"05:42:08",1
"22/08/07","06:00",0.0,24.9,92.5,1004.8,307.4,0.8,1.6,314.5,0.00,23.6,26.1,"05:57:36",1
"22/08/07","06:10",0.0,24.9,92.6,1005.0,291.3,0.7,1.2,318.7,0.00,23.7,26.0,"06:00:32",1
"22/08/07","06:20",0.0,25.0,92.7,1004.5,287.4,0.5,0.9,308.9,0.00,23.8,25.9,"06:18:56",1
"22/08/07","06:30",0.0,25.2,92.7,1005.0,329.2,1.0,1.3,339.1,0.00,24.0,26.0,"06:28:32",1
"22/08/07","06:40",0.0,25.5,92.8,1005.0,325.7,0.8,1.2,335.8,0.01,24.3,25.8,"06:30:40",1
"22/08/07","06:50",0.0,25.8,92.7,1004.8,333.2,0.7,1.1,327.9,0.02,24.6,25.7,"06:41:04",1
"22/08/07","07:00",0.0,26.0,92.7,1004.8,313.3,0.6,1.2,327.6,0.02,24.8,25.8,"06:58:32",1
"22/08/07","07:10",0.0,26.4,92.6,1004.8,290.5,0.6,1.0,327.8,0.06,25.1,25.7,"07:04:40",1
"22/08/07","07:20",0.0,26.9,92.0,1005.0,240.3,0.2,0.6,340.4,0.08,25.5,25.8,"07:15:12",1
"22/08/07","07:30",0.0,27.9,91.9,1004.8,210.1,0.2,0.6,327.1,0.09,26.5,25.9,"07:26:40",1
"22/08/07","07:40",0.0,27.7,91.3,1005.0,207.9,0.2,0.8,243.8,0.07,26.2,25.7,"07:38:24",1
"22/08/07","07:50",0.0,27.2,90.6,1005.0,307.9,0.6,1.3,346.2,0.07,25.6,25.9,"07:47:36",1
"22/08/07","08:00",0.0,27.1,89.6,1005.2,262.9,0.6,1.2,320.2,0.06,25.3,25.8,"07:54:16",1
"22/08/07","08:10",0.0,27.4,88.4,1005.0,201.6,0.5,1.6,343.8,0.07,25.4,25.8,"08:02:48",1
"22/08/07","08:20",0.0,27.5,87.2,1004.5,220.4,0.7,1.6,218.4,0.07,25.2,25.8,"08:10:56",1
"22/08/07","08:30",0.0,28.0,86.1,1004.3,224.5,1.0,2.2,230.7,0.10,25.5,25.6,"08:27:04",1
"22/08/07","08:40",0.0,28.7,83.7,1004.5,200.2,0.7,2.0,241.0,0.17,25.7,25.8,"08:31:28",1
"22/08/07","08:50",0.0,28.6,81.1,1004.8,159.9,0.8,2.1,166.6,0.10,25.1,26.1,"08:48:08",1
"22/08/07","09:00",0.0,29.0,80.4,1005.0,177.5,1.0,2.6,200.0,0.20,25.3,25.8,"08:54:16",1
"22/08/07","09:10",0.0,30.2,77.4,1005.2,146.3,1.1,2.1,131.6,0.32,25.8,25.8,"09:03:12",1
"22/08/07","09:20",0.0,30.3,75.4,1005.7,170.5,0.8,1.7,101.6,0.22,25.5,25.8,"09:13:52",1
"22/08/07","09:30",0.0,30.6,74.3,1005.7,147.2,0.7,1.6,136.3,0.26,25.5,26.0,"09:28:08",1
"22/08/07","09:40",0.0,31.4,72.0,1006.2,134.7,0.7,1.9,150.3,0.37,25.8,25.9,"09:32:56",1
"22/08/07","09:50",0.0,32.3,69.8,1006.4,78.1,0.7,2.0,13.6,0.39,26.1,25.9,"09:42:40",1
"22/08/07","10:00",0.0,32.1,67.6,1006.9,267.9,0.3,1.7,231.9,0.25,25.4,26.1,"09:56:24",1
"22/08/07","10:10",0.0,31.6,68.2,1006.7,64.3,0.6,1.4,37.5,0.17,25.1,26.1,"10:05:28",1
"22/08/07","10:20",0.0,31.7,68.1,1006.9,84.0,0.7,1.7,351.5,0.29,25.1,25.9,"10:18:08",1
"22/08/07","10:30",0.0,31.2,68.7,1006.2,12.8,0.8,1.9,10.0,0.14,24.8,25.9,"10:25:04",1
"22/08/07","10:40",0.0,31.3,69.4,1006.0,5.8,0.7,1.7,51.5,0.24,25.1,26.3,"10:30:02",1
"22/08/07","10:50",0.0,32.1,69.5,1006.2,100.1,0.5,2.0,97.4,0.38,25.9,26.0,"10:41:36",1
"22/08/07","11:00",0.0,33.4,64.5,1006.7,63.3,0.8,1.8,80.4,0.62,25.8,26.1,"10:51:36",1
"22/08/07","11:10",0.0,34.3,61.5,1007.1,65.1,0.8,2.7,67.4,0.58,25.9,26.2,"11:04:00",1
"22/08/07","11:20",0.0,33.7,62.1,1006.9,156.3,1.1,2.6,171.4,0.47,25.5,26.4,"11:16:16",1
"22/08/07","11:30",0.0,33.9,62.0,1007.1,174.1,0.8,1.9,240.8,0.55,25.6,26.3,"11:20:08",1
"22/08/07","11:40",0.0,34.7,59.7,1007.1,145.9,1.0,2.9,125.7,0.66,25.7,25.9,"11:30:24",1
"22/08/07","11:50",0.0,34.0,59.2,1007.4,183.6,1.7,3.1,185.6,0.57,24.9,26.5,"11:42:40",1
"22/08/07","12:00",0.0,34.3,60.4,1006.9,173.6,1.3,2.9,199.5,0.58,25.6,26.4,"11:58:08",1
"22/08/07","12:10",0.0,34.2,59.1,1006.4,149.4,1.5,2.9,137.5,0.52,25.1,26.6,"12:05:20",1
"22/08/07","12:20",0.0,35.0,58.1,1006.7,158.4,1.1,2.6,214.1,0.65,25.6,26.4,"12:19:52",1
"22/08/07","12:30",0.0,34.6,56.6,1006.4,195.1,1.3,3.4,222.9,0.50,24.8,26.5,"12:28:48",1
"22/08/07","12:40",0.0,34.7,57.1,1006.2,166.6,1.0,2.8,191.1,0.47,25.0,26.7,"12:39:44",1
"22/08/07","12:50",0.0,34.6,56.6,1006.4,220.5,1.2,2.7,231.5,0.49,24.8,26.7,"12:43:28",1
"22/08/07","13:00",0.0,35.2,56.5,1006.4,268.7,1.1,2.5,213.4,0.60,25.3,26.8,"12:53:12",1
"22/08/07","13:10",0.0,35.8,57.2,1006.2,117.6,1.1,2.2,142.7,0.64,26.0,26.8,"13:00:24",1
"22/08/07","13:20",0.0,34.6,57.4,1006.2,110.9,1.1,3.5,100.3,0.25,25.0,26.8,"13:16:40",1
"22/08/07","13:30",0.0,34.7,60.1,1005.5,104.2,0.7,2.0,115.8,0.45,25.9,26.8,"13:20:02",1
"22/08/07","13:40",0.0,35.5,56.9,1005.7,95.8,1.1,2.6,151.5,0.52,25.7,26.9,"13:37:28",1
"22/08/07","13:50",0.0,34.3,59.0,1005.2,96.5,1.1,2.5,133.5,0.22,25.2,27.0,"13:41:44",1
"22/08/07","14:00",0.0,33.7,60.4,1005.2,79.8,1.0,2.7,73.3,0.18,25.0,27.1,"13:58:00",1
"22/08/07","14:10",0.0,33.7,61.3,1005.0,139.3,1.0,1.8,147.7,0.19,25.3,26.9,"14:07:12",1
"22/08/07","14:20",0.0,33.8,63.1,1004.8,120.9,1.0,2.1,20.9,0.27,25.8,27.0,"14:16:48",1
"22/08/07","14:30",0.0,35.3,58.6,1005.2,115.6,1.0,2.4,127.5,0.58,26.0,27.0,"14:27:04",1
"22/08/07","14:40",0.0,35.9,56.7,1005.7,148.2,1.3,2.7,164.9,0.58,26.0,26.8,"14:31:20",1
"22/08/07","14:50",0.0,35.1,56.6,1005.5,118.6,0.8,2.2,116.2,0.18,25.2,27.1,"14:46:56",1
"22/08/07","15:00",0.0,34.3,58.7,1005.0,84.2,1.1,2.7,31.5,0.12,25.1,27.2,"14:51:20",1
"22/08/07","15:10",0.0,34.1,61.5,1005.0,107.1,0.7,1.7,91.5,0.23,25.7,27.0,"15:03:12",1
"22/08/07","15:20",0.0,35.3,57.7,1004.5,100.4,0.8,2.0,111.0,0.43,25.7,27.1,"15:15:12",1
"22/08/07","15:30",0.0,34.8,56.9,1004.8,88.2,1.0,3.2,7.3,0.21,25.0,27.1,"15:28:08",1
"22/08/07","15:40",0.0,35.3,56.6,1004.8,65.0,1.2,2.8,45.5,0.33,25.4,27.3,"15:35:52",1
"22/08/07","15:50",0.0,34.9,57.0,1004.3,133.1,0.8,1.9,43.8,0.16,25.2,27.0,"15:40:32",1
"22/08/07","16:00",0.0,34.8,57.1,1004.1,139.4,1.3,2.9,129.5,0.30,25.1,27.3,"15:56:48",1
"22/08/07","16:10",0.0,35.0,59.2,1004.1,154.2,1.2,2.8,144.7,0.28,25.9,27.3,"16:07:28",1
"22/08/07","16:20",0.0,35.6,55.2,1004.3,70.0,1.1,2.1,33.9,0.35,25.3,27.4,"16:11:44",1
"22/08/07","16:30",0.0,35.8,55.1,1004.3,105.1,1.0,2.0,125.3,0.29,25.4,27.3,"16:26:00",1
"22/08/07","16:40",0.0,36.0,55.5,1004.3,51.5,0.6,1.9,18.8,0.25,25.7,27.2,"16:33:04",1
"22/08/07","16:50",0.0,35.5,55.1,1004.5,93.6,0.8,2.8,35.4,0.17,25.1,27.4,"16:40:16",1
"22/08/07","17:00",0.0,35.2,57.4,1004.1,86.7,0.8,2.0,100.6,0.19,25.5,27.6,"16:50:56",1
"22/08/07","17:10",0.0,35.0,58.6,1004.3,109.0,1.1,2.5,62.2,0.21,25.7,27.5,"17:02:48",1
"22/08/07","17:20",0.0,34.3,58.8,1004.1,109.0,1.1,2.1,97.8,0.10,25.1,27.6,"17:19:36",1
"22/08/07","17:30",0.0,33.6,61.2,1004.1,124.0,1.2,2.8,146.6,0.07,25.1,27.3,"17:26:08",1
"22/08/07","17:40",0.0,33.3,62.2,1004.1,97.1,1.0,2.4,69.4,0.06,25.1,27.4,"17:39:52",1
"22/08/07","17:50",0.0,33.3,63.1,1004.3,102.3,1.0,3.3,117.1,0.07,25.4,27.3,"17:45:04",1
"22/08/07","18:00",0.0,33.0,63.9,1003.8,119.0,1.5,2.8,120.0,0.05,25.3,27.4,"17:50:56",1
"22/08/07","18:10",0.0,32.7,64.5,1003.6,114.8,1.0,2.6,141.3,0.03,25.2,27.4,"18:02:24",1
"22/08/07","18:20",0.0,32.5,65.7,1003.4,128.3,1.5,4.1,119.0,0.00,25.3,27.4,"18:18:24",1
"22/08/07","18:30",0.0,30.8,68.1,1004.1,158.0,3.5,7.9,151.8,0.01,24.3,27.3,"18:21:20",1
"22/08/07","18:40",0.0,30.5,70.3,1003.6,139.3,1.7,5.4,163.7,0.03,24.5,27.6,"18:30:32",1
"22/08/07","18:50",0.0,30.0,72.6,1003.6,104.7,1.0,2.4,86.4,0.03,24.6,27.4,"18:40:32",1
"22/08/07","19:00",0.0,30.0,74.3,1003.1,52.6,0.3,1.7,35.2,0.03,25.0,27.4,"18:52:48",1
"22/08/07","19:10",0.0,29.8,75.5,1003.6,37.1,0.6,2.1,355.4,0.01,25.0,27.3,"19:09:20",1
"22/08/07","19:20",0.0,29.4,76.6,1002.9,82.5,0.5,1.8,73.8,0.00,24.9,27.4,"19:15:20",1
"22/08/07","19:30",0.0,28.9,78.1,1003.1,30.1,0.5,1.8,17.9,0.00,24.7,27.4,"19:22:32",1
"22/08/07","19:40",0.0,28.6,79.2,1003.1,247.4,0.3,1.0,237.4,0.00,24.7,27.3,"19:39:04",1
"22/08/07","19:50",0.0,28.2,79.9,1003.8,240.1,0.5,1.4,223.0,0.00,24.4,27.2,"19:48:24",1
"22/08/07","20:00",0.0,28.2,80.9,1003.8,314.4,1.1,2.6,347.6,0.00,24.6,27.3,"19:57:12",1
"22/08/07","20:10",0.0,27.8,82.2,1004.5,327.7,1.2,2.4,332.1,0.00,24.5,27.2,"20:05:04",1
"22/08/07","20:20",0.0,27.6,83.2,1004.5,345.3,1.6,2.5,343.2,0.00,24.5,27.2,"20:16:48",1
"22/08/07","20:30",0.0,27.4,84.1,1005.0,341.6,1.2,1.8,345.8,0.00,24.5,27.3,"20:28:48",1
"22/08/07","20:40",0.0,27.1,85.0,1005.2,340.1,1.3,2.5,347.4,0.00,24.4,27.1,"20:35:44",1
"22/08/07","20:50",0.0,26.9,85.7,1005.7,342.5,1.2,2.4,347.7,0.00,24.3,27.1,"20:41:04",1
"22/08/07","21:00",0.0,26.8,86.2,1005.5,332.4,1.1,1.6,320.3,0.00,24.3,27.2,"20:54:48",1
"22/08/07","21:10",0.0,26.7,86.7,1006.0,305.3,0.8,1.2,325.1,0.00,24.3,27.1,"21:02:00",1
"22/08/07","21:20",0.0,26.6,87.0,1006.0,329.2,0.7,1.3,332.0,0.00,24.3,27.1,"21:11:04",1
"22/08/07","21:30",0.0,26.7,87.4,1006.0,339.3,1.1,1.6,328.3,0.00,24.5,26.9,"21:29:36",1
"22/08/07","21:40",0.0,26.6,87.8,1006.4,333.3,1.3,2.1,323.1,0.00,24.4,26.9,"21:32:00",1
"22/08/07","21:50",0.0,26.4,88.3,1006.4,302.6,1.1,1.7,322.6,0.00,24.3,27.0,"21:48:24",1
"22/08/07","22:00",0.0,26.3,88.6,1006.2,336.0,1.1,1.7,344.7,0.00,24.3,27.2,"21:57:36",1
"22/08/07","22:10",0.0,26.2,88.9,1006.4,326.7,1.0,1.4,335.3,0.00,24.3,27.0,"22:00:16",1
"22/08/07","22:20",0.0,26.1,89.1,1006.2,333.8,1.0,1.6,353.2,0.00,24.2,27.0,"22:11:12",1
"22/08/07","22:30",0.0,26.1,89.3,1006.0,324.1,1.3,2.2,324.3,0.00,24.2,26.9,"22:28:24",1
"22/08/07","22:40",0.0,26.0,89.5,1005.7,336.7,1.0,1.6,325.7,0.00,24.2,27.0,"22:31:12",1
"22/08/07","22:50",0.0,26.0,89.7,1006.0,338.1,1.0,1.7,347.7,0.00,24.2,26.8,"22:49:28",1
"22/08/07","23:00",0.0,25.9,89.9,1006.0,324.5,1.3,2.0,315.7,0.00,24.2,26.9,"22:50:02",1
"22/08/07","23:10",0.0,25.8,90.1,1006.0,288.0,1.0,2.2,320.2,0.00,24.1,26.8,"23:00:08",1
"22/08/07","23:20",0.0,25.8,90.2,1005.7,332.9,1.2,1.9,334.2,0.00,24.1,26.7,"23:13:20",1
"22/08/07","23:30",0.0,25.8,90.3,1005.7,335.5,1.0,1.7,351.2,0.00,24.1,26.8,"23:22:24",1
"22/08/07","23:40",0.0,25.7,90.5,1005.7,301.1,0.7,2.9,345.3,0.00,24.1,26.8,"23:32:56",1
"22/08/07","23:50",0.0,25.5,90.6,1005.5,312.3,0.8,1.3,322.6,0.00,23.9,26.8,"23:48:16",1
"22/08/07","24:00",0.0,25.6,90.7,1005.5,342.3,1.0,1.4,344.6,0.00,24.0,26.7,"23:54:40",1
